XE2WR-3 Weather Reports


time (UTC)temp
C
wind
direction
speed
KPH
gust
KPH
rain 1hr
cm
rain 24hr
cm
rain mn
cm
humidity
%
barometer
mb
20260504081522 17 104 1.6 6.4 0.00 0.00 0.00 82 1014.3
20260504060105 19 70 8.0 19.3 0.00 0.00 0.00 75 1015.2
20260504044553 20 68 6.4 14.5 0.00 0.00 0.00 72 1016.1
20260504043052 20 65 8.0 19.3 0.00 0.00 0.00 71 1016.2
20260504041550 20 94 6.4 14.5 0.00 0.00 0.00 71 1016.6
20260504040049 20 73 6.4 14.5 0.00 0.00 0.00 71 1016.9
20260504034549 20 91 6.4 14.5 0.00 0.00 0.00 71 1016.9
20260504033053 20 81 3.2 16.1 0.00 0.00 0.00 71 1016.9
20260504031558 20 59 6.4 12.9 0.00 0.00 0.00 70 1016.7
20260504030050 20 98 6.4 16.1 0.00 0.00 0.00 69 1016.7
20260504024557 20 117 4.8 11.3 0.00 0.00 0.00 69 1016.6
20260504023047 20 68 9.7 16.1 0.00 0.00 0.00 68 1016.6
20260504021551 20 83 6.4 14.5 0.00 0.00 0.00 68 1016.4
20260504020049 20 99 6.4 16.1 0.00 0.00 0.00 68 1016.4
20260504014544 20 127 9.7 19.3 0.00 0.00 0.00 68 1016.3
20260504013048 20 100 9.7 16.1 0.00 0.00 0.00 67 1016.2
20260504011543 21 110 8.0 17.7 0.00 0.00 0.00 66 1015.8
20260504010042 21 66 4.8 27.4 0.00 0.00 0.00 66 1015.9
20260504004556 21 113 11.3 16.1 0.00 0.00 0.00 65 1016.1
20260504003042 21 98 12.9 17.7 0.00 0.00 0.00 64 1015.9
20260504001543 21 94 8.0 20.9 0.00 0.00 0.00 63 1015.7
20260504000040 21 108 8.0 22.5 0.00 0.00 0.00 63 1015.7
20260503234538 22 56 12.9 22.5 0.00 0.00 0.00 62 1015.7
20260503233036 22 68 17.7 25.7 0.00 0.00 0.00 61 1015.8
20260503231536 22 72 14.5 24.1 0.00 0.00 0.00 60 1015.8
20260503230035 22 56 11.3 20.9 0.00 0.00 0.00 60 1016.1
20260503224534 22 68 12.9 27.4 0.00 0.00 0.00 59 1016.2
20260503223032 22 65 16.1 20.9 0.00 0.00 0.00 59 1016.3
20260503221528 22 86 14.5 22.5 0.00 0.00 0.00 58 1016.6
20260503220033 22 74 8.0 24.1 0.00 0.00 0.00 58 1016.6
20260503214525 22 67 11.3 19.3 0.00 0.00 0.00 58 1016.9
20260503213028 22 61 12.9 24.1 0.00 0.00 0.00 57 1017.0
20260503211534 22 86 11.3 22.5 0.00 0.00 0.00 56 1017.3
20260503210018 22 90 14.5 22.5 0.00 0.00 0.00 57 1017.6
20260503204516 22 63 6.4 25.7 0.00 0.00 0.00 58 1017.7
20260503203014 22 56 8.0 16.1 0.00 0.00 0.00 57 1017.9
20260503201510 21 70 4.8 16.1 0.00 0.00 0.00 57 1018.3
20260503200009 22 68 3.2 16.1 0.00 0.00 0.00 57 1018.7
20260503194505 21 55 14.5 20.9 0.00 0.00 0.00 57 1019.1
20260503193011 21 101 12.9 22.5 0.00 0.00 0.00 57 1019.5
20260503191502 21 58 8.0 17.7 0.00 0.00 0.00 56 1019.6
20260503190001 21 56 4.8 19.3 0.00 0.00 0.00 56 1020.0
20260503184608 20 109 12.9 20.9 0.00 0.00 0.00 57 1020.3
20260503183057 20 110 11.3 19.3 0.00 0.00 0.00 58 1020.7
20260503181559 20 89 6.4 12.9 0.00 0.00 0.00 59 1020.9
20260503180054 20 51 3.2 9.7 0.00 0.00 0.00 60 1021.3
20260503174607 20 93 4.8 9.7 0.00 0.00 0.00 58 1021.4
20260503173055 20 37 3.2 8.0 0.00 0.00 0.00 59 1021.6
20260503171549 18 127 4.8 11.3 0.00 0.00 0.00 61 1021.8